Погода в Богословке

Россия / Томская область     56°48′09″N   86°43′24″E
темп.,
°C
ветер,
м/с
пор.,
м/с
влажн.,
%
обл.,
%
осадки,
мм/ч
давл.,
гПа
погр.,
м
17 июня, чт
чт1701:00+14ююв469592 4.3 101096
04:00+14ююв359480 0.0 100995
07:00+16ююз36930 0.0 1008210
10:00+21юз47765 0.0 1008667
13:00+22юз4781100 5.3 1007767
16:00+21зюз4684100 4.4 1007455
19:00+21з46836 5.9 1006692
22:00+17юз338779 0.8 100622
18 июня, пт
пт1801:00+14зюз33933 0.8 100637
04:00+13зюз339094 0.0 100641
07:00+16юз379098 0.0 1006193
10:00+19зюз4780100 0.1 1005342
13:00+20ююз237982 1.1 1005358
16:00+25ююз466082 0.1 10031789
19:00+22юз378210 0.8 1002295
22:00+19ю35905 0.3 100167
19 июня, сб
сб1901:00+17ююз48935 1.9 1001136
04:00+16ю410945 0.0 999176
07:00+19ю410926 0.6 999305
10:00+23юз5974100 0.0 999637
13:00+24ююз4780100 3.0 998748
16:00+26ю466478 1.2 9971321
19:00+24ююз38767 1.5 996427
22:00+19юз348919 0.3 99666
20 июня, вс
вс2001:00+18сз3596100 0.7 997109
04:00+16зюз5998100 0.9 999524
07:00+14зюз4895100 1.6 1001604
10:00+13юз5890100 0.2 1003808
13:00+12юз61080100 0.3 10061070
16:00+12юз6117789 0.7 10071309
19:00+14ююз51067100 0.7 10081673
22:00+11ю410772 0.0 1008266
21 июня, пн
пн2101:00+9ююв511830 0.0 1008274
04:00+7ююв410865 0.0 1009236
07:00+11ююв511826 0.0 1009534
10:00+15ююв576310 0.0 1008926
13:00+19ююв475053 0.0 10082276
16:00+20юв474954 0.0 10072147
19:00+19вюв48615 0.0 1006564
22:00+14в41071100 0.0 1006235